GW0367 Weather Reports


time (UTC)temp
F
wind
direction
speed
knots
gust
knots
rain 1hr
in
rain 24hr
in
rain mn
in
humidity
%
barometer
mb
20260506051017 57 123 2.6 5.2 0.00 0.05 0.01 61 1014.8
20260506050517 58 167 1.7 4.3 0.00 0.05 0.01 61 1014.8
20260506045018 58 188 0.9 4.3 0.00 0.05 0.01 60 1014.6
20260506044540 58 200 1.7 4.3 0.00 0.05 0.01 59 1014.6
20260506044017 58 181 2.6 5.2 0.00 0.05 0.01 59 1014.5
20260506043518 58 175 1.7 5.2 0.00 0.05 0.01 59 1014.4
20260506043035 58 167 0.0 2.6 0.00 0.05 0.01 61 1014.3
20260506042519 58 0 0.0 4.3 0.00 0.05 0.01 59 1014.3
20260506042019 58 0 1.7 4.3 0.00 0.05 0.01 59 1014.2
20260506041535 58 161 1.7 3.5 0.00 0.05 0.01 60 1014.0
20260506041017 59 146 0.9 6.1 0.00 0.05 0.01 59 1014.2
20260506040518 58 134 2.6 7.0 0.00 0.05 0.01 59 1013.8
20260506040035 58 179 3.5 7.0 0.00 0.05 0.01 59 1013.8
20260506035521 58 186 3.5 6.1 0.00 0.14 0.01 60 1013.8
20260506035018 58 182 2.6 6.1 0.00 0.14 0.01 59 1013.7
20260506034532 58 170 3.5 6.1 0.00 0.14 0.01 59 1013.6
20260506034018 58 199 1.7 4.3 0.00 0.14 0.01 59 1013.5
20260506033518 59 207 0.0 5.2 0.00 0.14 0.01 57 1013.5
20260506033038 59 171 1.7 7.8 0.00 0.14 0.01 57 1013.5
20260506032517 59 148 2.6 9.6 0.00 0.14 0.01 56 1013.4
20260506032017 60 184 4.3 9.6 0.00 0.14 0.01 56 1013.3
20260506031537 60 93 1.7 7.8 0.00 0.14 0.01 56 1013.2
20260506031016 60 0 0.9 10.4 0.00 0.14 0.01 55 1013.2
20260506030519 60 138 4.3 10.4 0.00 0.14 0.01 55 1013.2
20260506030055 60 142 7.0 10.4 0.00 0.14 0.01 55 1013.1
20260506025517 61 360 4.3 9.6 0.00 0.14 0.01 54 1013.0
20260506025022 61 180 2.6 9.6 0.00 0.14 0.01 53 1012.8
20260506024539 61 113 6.1 11.3 0.00 0.14 0.01 52 1012.7
20260506024017 62 360 6.1 11.3 0.00 0.14 0.01 52 1012.7
20260506023519 62 127 7.0 11.3 0.00 0.14 0.01 51 1012.5
20260506023033 63 221 5.2 7.8 0.00 0.14 0.01 50 1012.5
20260506022517 64 199 4.3 7.0 0.00 0.14 0.01 48 1012.3
20260506022017 66 228 1.7 5.2 0.00 0.14 0.01 45 1012.3
20260506021536 67 241 1.7 4.3 0.00 0.14 0.01 43 1012.3
20260506021018 68 253 1.7 3.5 0.00 0.14 0.01 40 1012.3
20260506020522 68 269 0.9 3.5 0.00 0.14 0.01 39 1012.2
20260506020035 68 277 0.9 4.3 0.00 0.14 0.01 38 1012.2
20260506015518 68 292 1.7 6.1 0.00 0.30 0.01 38 1012.2
20260506015018 68 277 1.7 7.8 0.00 0.30 0.01 38 1012.1
20260506014543 68 243 2.6 7.8 0.00 0.30 0.01 37 1012.1
20260506014017 69 319 3.5 7.0 0.00 0.30 0.01 37 1012.1
20260506013518 69 13 0.9 6.1 0.00 0.30 0.01 39 1012.0
20260506013035 69 64 1.7 7.8 0.00 0.30 0.01 37 1012.1
20260506012517 69 288 3.5 7.8 0.00 0.30 0.01 37 1012.1
20260506012018 69 315 2.6 7.0 0.00 0.30 0.01 38 1012.1
20260506011538 69 308 3.5 7.0 0.00 0.30 0.01 35 1012.1
20260506011022 69 327 2.6 7.8 0.00 0.30 0.01 37 1012.0
20260506010518 70 313 3.5 7.8 0.00 0.30 0.01 36 1012.0
20260506010041 70 15 1.7 7.0 0.00 0.30 0.01 38 1012.0
20260506005519 70 327 2.6 7.8 0.00 0.45 0.01 37 1012.0
20260506005017 70 19 2.6 7.8 0.00 0.45 0.01 36 1012.0
20260506004546 70 28 2.6 7.0 0.00 0.45 0.01 38 1012.2
20260506004017 69 328 1.7 7.8 0.00 0.45 0.01 38 1012.2
20260506003519 68 59 2.6 7.8 0.00 0.45 0.01 38 1012.2
20260506003039 68 290 0.9 7.8 0.00 0.45 0.01 39 1012.4
20260506002517 67 271 1.7 8.7 0.00 0.45 0.01 40 1012.3
20260506002019 67 294 4.3 8.7 0.00 0.45 0.01 38 1012.3
20260506001535 68 271 1.7 7.0 0.00 0.45 0.01 38 1012.3
20260506001017 69 360 0.9 4.3 0.00 0.45 0.01 37 1012.3
20260506000518 69 282 1.7 7.0 0.00 0.45 0.01 40 1012.4
20260506000033 68 83 1.7 7.0 0.00 0.45 0.01 39 1012.4
20260505235518 68 82 3.5 7.8 0.00 0.45 0.01 38 1012.3
20260505235018 67 88 3.5 7.8 0.00 0.45 0.01 40 1012.3
20260505234536 68 126 2.6 7.0 0.00 0.45 0.01 37 1012.3
20260505234018 68 80 1.7 6.1 0.00 0.45 0.01 37 1012.3
20260505233520 68 171 2.6 7.0 0.00 0.45 0.01 43 1012.3
20260505233032 66 259 2.6 7.0 0.00 0.45 0.01 42 1012.4
20260505232517 67 242 2.6 7.0 0.00 0.45 0.01 40 1012.4
20260505232015 67 226 2.6 9.6 0.00 0.45 0.01 40 1012.5
20260505231534 67 36 2.6 9.6 0.00 0.45 0.01 42 1012.5
20260505231017 68 227 1.7 7.0 0.00 0.45 0.01 38 1012.6
20260505230519 67 111 2.6 7.0 0.00 0.45 0.01 39 1012.5
20260505230045 67 25 1.7 7.0 0.00 0.45 0.01 42 1012.7
20260505225517 67 349 1.7 7.8 0.00 0.45 0.01 44 1012.8
20260505225022 66 11 0.9 7.8 0.00 0.45 0.01 46 1012.8
20260505224538 66 22 3.5 7.8 0.00 0.45 0.01 42 1012.8
20260505224018 67 0 0.0 5.2 0.00 0.45 0.01 43 1012.8
20260505223518 66 39 1.7 6.1 0.00 0.45 0.01 45 1012.8
20260505223035 66 166 0.0 6.1 0.00 0.45 0.01 45 1013.0
20260505222519 66 244 2.6 6.1 0.00 0.45 0.01 44 1013.0
20260505222017 66 321 1.7 3.5 0.00 0.45 0.01 49 1013.0
20260505221535 65 191 0.9 4.3 0.00 0.45 0.01 48 1013.1
20260505221017 65 155 1.7 4.3 0.00 0.45 0.01 44 1013.2
20260505220517 65 185 0.0 7.0 0.00 0.45 0.01 47 1013.2
20260505220041 64 0 1.7 7.0 0.00 0.45 0.01 48 1013.3
20260505215517 65 330 0.9 7.0 0.00 0.45 0.01 50 1013.4
20260505215022 65 225 2.6 7.0 0.00 0.45 0.01 48 1013.4
20260505214537 65 74 1.7 6.1 0.00 0.45 0.01 46 1013.5
20260505214018 64 267 1.7 7.0 0.00 0.45 0.01 50 1013.5
20260505213520 64 0 1.7 7.0 0.00 0.45 0.01 50 1013.5
20260505213043 63 350 3.5 7.0 0.00 0.45 0.01 51 1013.6
20260505212517 64 71 1.7 6.1 0.00 0.45 0.01 49 1013.7
20260505212020 63 323 0.9 4.3 0.00 0.45 0.01 50 1013.7
20260505211534 63 195 0.9 7.8 0.00 0.45 0.01 51 1013.8
20260505211019 62 227 1.7 8.7 0.00 0.45 0.01 50 1014.0
20260505210520 63 350 2.6 8.7 0.00 0.45 0.01 53 1014.0
20260505210033 62 0 2.6 7.0 0.00 0.45 0.01 54 1014.0
20260505205520 63 325 2.6 7.0 0.00 0.46 0.01 54 1014.0
20260505205017 61 0 1.7 5.2 0.00 0.46 0.01 51 1014.0
20260505204534 62 104 1.7 5.2 0.00 0.46 0.01 52 1014.0
20260505204020 62 350 1.7 5.2 0.00 0.46 0.01 59 1014.1
20260505203517 63 12 0.9 7.0 0.00 0.46 0.01 59 1014.0
20260505203037 61 225 3.5 7.0 0.00 0.46 0.01 57 1014.0
20260505202516 61 156 1.7 5.2 0.00 0.46 0.01 59 1014.0
20260505202017 61 90 0.9 3.5 0.00 0.46 0.01 62 1014.0
20260505201536 59 116 0.9 7.8 0.00 0.46 0.01 63 1014.1
20260505201019 59 347 2.6 7.8 0.00 0.46 0.01 60 1014.1
20260505200518 60 65 0.9 3.5 0.00 0.46 0.01 61 1014.1
20260505200036 60 17 0.9 3.5 0.00 0.46 0.01 66 1014.2
20260505195521 60 0 1.7 4.3 0.00 0.46 0.01 59 1014.2
20260505195017 60 0 0.9 6.1 0.00 0.46 0.01 60 1014.3
20260505194536 61 59 1.7 7.8 0.00 0.46 0.01 59 1014.3
20260505194018 60 0 1.7 7.8 0.00 0.46 0.01 67 1014.3
20260505193520 59 101 0.9 5.2 0.00 0.46 0.01 66 1014.3
20260505193052 58 55 0.9 3.5 0.00 0.46 0.01 67 1014.3
20260505192518 58 28 0.9 4.3 0.00 0.46 0.01 66 1014.3
20260505192018 59 71 0.9 5.2 0.00 0.46 0.01 66 1014.3
20260505191536 60 62 1.7 5.2 0.00 0.46 0.01 67 1014.3
20260505191017 59 66 1.7 5.2 0.00 0.46 0.01 66 1014.2
20260505190517 59 350 1.7 7.8 0.00 0.46 0.01 71 1014.2
20260505190041 58 0 0.9 7.8 0.00 0.46 0.01 72 1014.1
20260505185519 58 75 1.7 5.2 0.00 0.46 0.01 69 1014.1
20260505185018 57 82 0.9 5.2 0.00 0.46 0.01 70 1014.2
20260505184535 56 0 0.9 5.2 0.00 0.46 0.01 67 1014.2
20260505184018 56 0 1.7 4.3 0.00 0.46 0.01 69 1014.2
20260505183519 56 0 0.9 4.3 0.00 0.46 0.01 68 1014.3
20260505183035 56 0 0.0 6.1 0.00 0.46 0.01 77 1014.2
20260505182518 56 79 0.9 6.1 0.00 0.46 0.01 71 1014.3
20260505182018 55 86 0.9 5.2 0.00 0.46 0.01 73 1014.3
20260505181540 55 93 0.9 6.1 0.00 0.46 0.01 78 1014.3
20260505181019 53 110 1.7 6.1 0.00 0.46 0.01 77 1014.3
20260505180519 53 157 1.7 6.1 0.00 0.46 0.01 77 1014.2
20260505180044 53 213 2.6 4.3 0.00 0.46 0.01 75 1014.2
20260505175521 54 169 0.9 4.3 0.00 0.46 0.01 80 1014.2
20260505175019 53 66 0.0 3.5 0.00 0.46 0.01 79 1014.2
20260505174535 53 40 0.9 3.5 0.00 0.46 0.01 79 1014.2
20260505174019 52 0 0.0 1.7 0.00 0.46 0.01 82 1014.1
20260505173522 51 0 0.0 2.6 0.00 0.46 0.01 82 1014.0
20260505173035 51 101 0.0 2.6 0.00 0.46 0.01 80 1014.0
20260505172518 51 101 0.0 1.7 0.00 0.46 0.01 82 1013.9
20260505172018 51 100 0.0 2.6 0.00 0.46 0.01 81 1013.9
20260505171547 50 98 0.0 2.6 0.00 0.46 0.01 82 1013.8
20260505171019 50 99 0.0 2.6 0.00 0.46 0.01 83 1013.9
20260505170520 50 0 0.0 2.6 0.00 0.46 0.01 85 1013.8
20260505170041 49 0 0.0 2.6 0.00 0.46 0.01 86 1013.8
20260505165519 49 100 0.9 2.6 0.00 0.46 0.01 85 1013.8
20260505165019 49 94 0.0 3.5 0.00 0.46 0.01 85 1013.8
20260505164540 48 95 0.9 3.5 0.00 0.46 0.01 85 1013.8
20260505164019 48 92 1.7 3.5 0.00 0.46 0.01 85 1013.7
20260505163519 48 0 0.9 3.5 0.00 0.46 0.01 85 1013.7
20260505163041 48 108 0.9 3.5 0.00 0.46 0.01 85 1013.7
20260505162518 47 116 0.9 2.6 0.00 0.46 0.01 85 1013.6
20260505162019 47 0 0.0 2.6 0.00 0.46 0.01 87 1013.6
20260505161532 47 0 0.9 2.6 0.00 0.46 0.01 87 1013.5
20260505161020 47 166 0.0 3.5 0.00 0.46 0.01 88 1013.5
20260505160519 47 0 0.9 3.5 0.00 0.46 0.01 88 1013.4
20260505153046 46 0 0.0 1.7 0.00 0.46 0.01 89 1013.2
20260505152518 46 0 0.0 1.7 0.00 0.46 0.01 89 1013.2
20260505152024 46 215 0.0 0.9 0.00 0.46 0.01 90 1013.1
20260505151538 46 0 0.0 0.9 0.00 0.46 0.01 90 1013.0
20260505151018 45 0 0.0 0.9 0.00 0.46 0.01 90 1012.9
20260505150518 45 0 0.0 0.0 0.00 0.46 0.01 91 1012.8
20260505140519 44 0 0.0 0.0 0.00 0.46 0.01 94 1012.3
20260505125020 44 0 0.0 0.0 0.00 0.46 0.01 94 1011.5
20260505124544 44 0 0.0 0.0 0.00 0.46 0.01 94 1011.5
20260505124020 44 0 0.0 0.0 0.00 0.46 0.01 94 1011.5
20260505123518 44 0 0.0 0.0 0.00 0.46 0.01 94 1011.4
20260505123052 44 0 0.0 0.0 0.00 0.46 0.01 94 1011.4
20260505122518 44 0 0.0 0.0 0.00 0.46 0.01 94 1011.5
20260505122022 44 0 0.0 0.0 0.00 0.46 0.01 94 1011.4
20260505121535 44 0 0.0 0.0 0.00 0.46 0.01 94 1011.5
20260505121019 44 0 0.0 0.0 0.00 0.46 0.01 94 1011.4
20260505120518 44 0 0.0 0.0 0.00 0.46 0.01 94 1011.4
20260505120052 44 0 0.0 0.0 0.00 0.46 0.01 94 1011.3
20260505115518 44 0 0.0 0.0 0.00 0.46 0.01 94 1011.3
20260505115018 44 0 0.0 0.0 0.00 0.46 0.01 94 1011.3
20260505114541 44 0 0.0 0.0 0.00 0.46 0.01 94 1011.4
20260505114017 44 0 0.0 0.0 0.00 0.46 0.01 94 1011.5
20260505113519 44 0 0.0 0.0 0.00 0.46 0.01 94 1011.4
20260505113035 44 0 0.0 0.0 0.00 0.46 0.01 94 1011.3
20260505112522 44 0 0.0 0.0 0.00 0.46 0.01 94 1011.3
20260505112019 44 0 0.0 0.0 0.00 0.46 0.01 94 1011.3
20260505111536 44 0 0.0 0.0 0.00 0.46 0.01 94 1011.3
20260505111022 44 0 0.0 0.0 0.00 0.46 0.01 94 1011.3
20260505110522 44 0 0.0 0.0 0.00 0.46 0.01 94 1011.3
20260505102019 43 0 0.0 0.0 0.00 0.46 0.01 93 1011.5
20260505101536 43 0 0.0 0.0 0.00 0.46 0.01 93 1011.6
20260505101019 43 0 0.0 0.0 0.00 0.46 0.01 93 1011.5
20260505100519 43 0 0.0 0.0 0.00 0.46 0.01 93 1011.6
20260505100038 43 0 0.0 0.0 0.00 0.46 0.01 93 1011.7
20260505095518 43 0 0.0 0.0 0.00 0.46 0.01 93 1011.7
20260505095018 43 0 0.0 0.0 0.00 0.46 0.01 93 1011.7
20260505094534 43 0 0.0 0.0 0.00 0.46 0.01 93 1011.7
20260505094018 43 0 0.0 0.0 0.01 0.46 0.01 93 1011.8
20260505093518 43 0 0.0 0.0 0.01 0.46 0.01 93 1011.8
20260505093034 43 0 0.0 0.0 0.01 0.46 0.01 93 1011.8
20260505092519 43 0 0.0 0.0 0.01 0.46 0.01 92 1011.8
20260505092019 43 0 0.0 0.0 0.01 0.46 0.01 93 1011.9
20260505091538 43 0 0.0 0.0 0.01 0.46 0.01 92 1012.0
20260505091019 43 0 0.0 0.0 0.01 0.46 0.01 92 1011.9
20260505090518 44 0 0.0 0.0 0.01 0.46 0.01 92 1011.7
20260505090039 44 0 0.0 0.0 0.01 0.46 0.01 92 1011.8
20260505085518 44 0 0.0 0.0 0.01 0.46 0.01 93 1012.0
20260505085019 44 0 0.0 0.0 0.01 0.46 0.01 92 1012.1
20260505084554 44 0 0.0 0.0 0.01 0.46 0.01 92 1012.1
20260505084018 44 0 0.0 0.0 0.00 0.45 0.00 92 1012.2
20260505083522 44 0 0.0 0.0 0.00 0.45 0.00 92 1012.2
20260505083129 44 0 0.0 0.0 0.00 0.45 0.00 92 1012.3
20260505082518 44 0 0.0 0.0 0.00 0.45 0.00 92 1011.9
20260505082018 44 0 0.0 0.0 0.00 0.45 0.00 92 1012.2
20260505081551 44 0 0.0 0.0 0.00 0.45 0.00 92 1012.3
20260505081018 44 0 0.0 0.0 0.00 0.45 0.00 92 1012.2
20260505080517 44 0 0.0 0.0 0.00 0.45 0.00 92 1012.2
20260505080044 44 0 0.0 0.9 0.00 0.45 0.00 92 1012.2
20260505075523 44 0 0.0 2.6 0.00 0.45 0.00 92 1012.0
20260505075017 44 0 0.0 3.5 0.01 0.45 0.00 92 1012.0
20260505074533 44 231 0.9 3.5 0.01 0.45 0.00 92 1011.9
20260505074014 44 274 1.7 3.5 0.02 0.45 0.00 92 1012.1
20260505073514 44 0 0.0 0.0 0.02 0.45 0.00 92 1012.3
20260505073048 44 0 0.0 0.0 0.02 0.45 0.00 92 1012.5
20260505072518 44 0 0.0 0.0 0.02 0.45 0.00 92 1012.7
20260505072017 44 0 0.0 0.0 0.02 0.45 0.00 92 1012.8
20260505071545 44 0 0.0 0.9 0.02 0.45 0.00 92 1012.7
20260505071015 44 0 0.0 0.9 0.02 0.45 0.00 92 1012.6
20260505070520 44 0 0.0 0.9 0.02 0.45 0.00 92 1012.5
20260505070041 44 0 0.0 2.6 0.02 0.45 0.00 92 1012.3
20260505065523 44 0 0.0 2.6 0.02 0.45 0.45 91 1012.2
20260505065017 44 0 0.9 2.6 0.01 0.44 0.44 91 1011.9
20260505064536 44 0 0.0 2.6 0.01 0.44 0.44 91 1012.0
20260505064014 44 219 1.7 3.5 0.00 0.43 0.43 92 1011.7
20260505063517 44 196 0.9 3.5 0.01 0.43 0.43 91 1011.9
20260505063038 44 200 0.0 3.5 0.01 0.43 0.43 92 1011.7
20260505062517 43 0 0.0 2.6 0.01 0.43 0.43 91 1011.8
20260505062018 43 0 0.0 3.5 0.01 0.43 0.43 91 1011.8
20260505061533 43 0 0.9 3.5 0.02 0.43 0.43 91 1011.8
20260505061014 43 150 1.7 4.3 0.02 0.43 0.43 91 1011.7
20260505060518 43 130 0.9 5.2 0.02 0.43 0.43 91 1011.6
20260505060051 43 136 1.7 5.2 0.02 0.43 0.43 91 1011.6